Wind_Speed
9 9 9 9 8 7 6 5 5 5 5 5 5 4 4 4 4 4 4 3 3 3 3 3 3 2 2 3 3 3 3 3 3 2 2 2 3 3 3 2 3 2 2
9 9 9 9 8 7 5 5 5 5 4 5 4 3 4 4 4 4 4 4 3 3 3 3 3 3 3 3 3 4 4 4 4 3 3 3 4 3 3 2 2 2 2
9 9 9 9 8 7 5 5 5 4 4 4 4 3 4 4 4 3 3 3 3 3 2 3 3 2 3 3 4 4 4 4 4 4 4 4 4 4 3 2 2 2 3
10 9 10 9 8 7 6 4 5 4 4 4 4 4 4 4 3 2 3 3 3 3 3 3 3 2 3 4 4 5 5 5 5 5 5 5 5 5 5 4 3 3 3
10 10 9 9 7 7 6 5 5 5 4 4 3 4 4 4 3 3 3 3 3 3 3 3 3 3 3 4 4 5 5 6 6 6 6 5 5 5 5 4 4 3 3
10 10 9 8 6 6 6 6 5 4 4 3 3 3 4 5 4 3 4 3 4 4 3 4 4 3 4 4 5 5 5 7 6 6 6 5 5 6 5 5 5 4 3
10 10 9 7 6 6 6 6 5 5 4 4 3 4 4 4 4 3 4 4 5 4 4 4 4 4 5 5 5 5 5 6 7 6 6 6 6 6 6 5 5 4 4
9 9 9 8 7 6 6 6 5 5 5 5 5 4 4 4 4 4 5 5 4 4 5 5 5 5 5 5 5 5 6 6 7 7 7 7 7 6 6 5 5 5 4
9 8 8 8 7 6 5 5 5 5 6 6 6 4 4 5 4 4 4 4 4 4 5 5 5 5 6 6 6 6 6 7 7 7 7 7 7 7 8 8 6 6 5
9 8 8 8 7 6 6 6 6 5 6 6 7 6 6 5 5 5 5 5 5 5 5 5 5 5 6 6 7 7 7 7 8 7 7 7 8 8 9 9 8 7 7
9 9 8 8 7 7 7 7 6 6 6 7 7 7 7 6 6 6 6 6 5 5 6 6 6 6 6 7 7 8 8 7 7 8 9 9 8 8 9 10 10 9 8
9 9 8 8 7 6 6 7 7 6 6 7 7 6 7 7 7 6 6 6 6 6 6 7 6 7 7 7 7 7 8 7 8 9 9 9 9 9 9 10 10 11 10
9 9 8 8 8 7 7 7 7 7 7 7 7 7 7 8 7 7 7 7 7 6 6 7 7 7 7 7 7 7 8 9 9 9 10 10 10 10 10 11 11 12 11
10 9 9 9 9 8 8 7 8 8 7 7 6 6 7 8 8 7 8 7 7 7 6 6 7 7 8 7 7 8 8 9 9 10 10 11 11 11 12 12 12 12 11
10 10 10 9 10 10 9 9 9 8 8 7 7 7 8 8 7 7 7 7 7 8 8 8 8 8 8 8 9 9 10 10 11 11 11 11 12 12 12 12 13 12 11
11 11 10 10 10 10 11 10 10 10 9 9 8 7 8 8 8 8 9 8 8 8 9 9 9 9 9 9 9 9 10 10 10 11 11 11 12 12 13 13 13 13 13
11 11 11 11 11 11 11 12 11 10 10 9 8 8 8 8 8 9 9 9 9 10 10 10 10 10 10 10 10 9 10 10 10 10 11 12 12 13 13 13 14 14 14
11 11 11 11 11 11 11 12 12 11 10 10 9 9 9 9 9 9 9 10 10 11 11 11 10 10 10 11 11 11 10 10 11 11 12 12 12 14 14 14 14 15 15
12 11 12 11 12 12 13 13 13 12 11 10 9 10 9 9 10 10 10 10 11 12 12 12 11 11 12 12 12 11 11 11 11 11 12 13 13 14 15 15 14 14 15
13 13 12 12 13 13 14 14 13 13 12 11 10 11 10 11 11 11 11 11 12 12 12 12 12 12 12 13 13 13 12 12 12 12 13 13 14 15 15 15 14 14 14
15 14 13 13 14 13 14 14 13 12 13 13 12 12 12 11 11 11 11 11 12 12 12 11 12 13 13 13 14 13 14 14 14 14 15 15 15 15 15 15 15 14 14
16 15 15 15 14 14 14 13 13 12 13 13 14 13 13 13 12 13 12 12 12 12 12 13 13 14 14 15 14 14 16 16 16 17 16 17 17 17 17 17 16 16 16
16 16 16 16 16 15 14 14 13 13 14 14 14 14 14 14 15 14 13 13 13 13 13 13 14 14 15 16 16 16 17 17 17 17 17 16 16 17 17 17 18 17 17
17 17 17 17 17 16 16 15 15 15 14 15 15 15 15 15 15 16 15 15 14 14 14 14 14 15 16 16 16 17 18 17 17 17 17 18 18 17 18 18 19 19 19
18 18 18 19 19 18 17 17 17 16 15 16 16 16 16 16 16 16 16 16 15 15 15 15 15 16 17 17 17 17 18 18 18 18 18 18 18 18 18 18 19 20 20
20 20 19 20 19 18 18 18 18 18 18 17 17 17 17 17 16 16 16 15 15 15 16 16 17 18 18 18 18 19 19 19 19 19 19 18 18 19 19 19 19 19 20
Wind_Direction
348 346 342 345 344 346 349 352 354 353 355 353 346 345 338 334 328 322 318 318 321 320 321 314 308 283 258 257 261 255 257 253 259 256 251 243 237 237 226 218 224 219 192
344 344 340 343 344 341 348 355 353 345 355 0 358 358 348 340 332 316 311 312 307 311 312 300 285 273 260 255 259 258 253 259 257 256 256 255 245 239 230 243 234 226 218
341 340 337 340 341 341 346 357 356 356 1 4 4 1 348 340 333 316 307 309 305 296 289 287 274 262 258 259 255 253 251 255 257 260 256 251 247 248 246 252 249 228 220
334 334 333 336 335 338 345 357 357 357 356 357 355 350 343 334 328 317 302 301 306 302 282 275 273 264 250 256 260 257 251 248 253 256 260 252 250 255 255 259 269 260 253
330 331 331 335 332 336 343 350 354 354 352 351 346 340 335 324 326 306 294 295 302 293 281 273 279 281 273 271 268 260 252 251 255 250 257 249 246 249 258 261 270 279 258
328 331 329 333 332 331 336 338 341 351 353 346 343 334 319 315 316 307 306 301 301 295 288 280 289 278 276 270 266 262 259 252 255 251 253 247 242 240 246 252 260 267 260
330 326 327 328 327 324 324 322 326 334 344 336 335 323 314 315 314 312 310 303 301 296 294 292 293 277 273 271 265 262 258 255 256 257 253 242 236 237 238 246 251 251 257
329 325 324 322 319 316 316 318 313 320 325 320 314 313 304 303 304 300 294 294 299 297 298 291 285 276 275 271 269 269 271 265 256 256 252 242 236 233 236 243 244 244 252
327 323 325 320 315 312 310 309 311 309 312 313 307 297 290 289 286 288 286 289 294 294 291 286 284 286 283 277 275 270 265 256 253 253 254 250 244 242 241 246 247 247 255
324 320 324 321 318 318 313 307 307 306 313 314 307 301 293 287 280 279 290 294 292 291 292 285 278 283 282 276 273 267 262 254 251 252 253 253 249 246 249 253 255 256 256
322 319 321 320 316 315 314 306 301 304 309 309 304 297 291 287 285 283 286 287 282 286 289 287 281 280 282 278 273 264 259 252 255 253 253 255 250 252 253 253 255 254 255
316 317 317 315 313 309 307 304 294 296 305 303 300 292 287 284 286 287 283 278 275 277 280 282 281 277 278 275 275 266 258 256 259 258 257 254 254 259 260 259 257 256 254
309 310 309 307 305 303 301 301 295 294 294 298 297 292 289 281 281 287 283 277 275 276 275 278 275 275 272 269 274 271 263 257 262 261 257 251 253 258 259 260 260 256 253
301 304 299 299 301 301 300 298 295 295 293 291 291 292 289 281 280 283 286 283 274 275 279 279 275 272 273 275 277 275 266 261 262 264 258 254 253 255 257 259 260 257 256
295 298 296 296 297 298 298 296 292 289 285 282 284 283 283 281 280 281 282 279 273 273 276 276 276 277 279 278 275 275 273 273 268 265 262 257 255 255 257 258 263 259 259
290 290 290 292 293 292 289 292 287 285 278 278 281 278 277 274 272 273 274 271 271 274 276 273 272 275 277 278 276 272 273 274 273 270 264 261 258 257 257 258 259 261 262
285 285 287 288 288 290 287 284 282 281 277 277 279 277 273 269 266 266 264 264 268 270 273 274 275 276 278 281 279 278 277 275 275 272 265 263 260 258 256 257 258 260 263
280 279 280 282 283 284 290 289 277 272 272 272 272 273 272 270 270 267 265 265 268 272 274 275 274 273 276 279 279 279 275 272 271 268 266 266 265 263 262 264 263 261 262
275 275 277 279 282 284 284 288 278 270 267 265 266 268 270 271 271 270 270 269 267 271 274 272 271 269 272 275 277 275 272 272 270 269 268 268 268 264 264 266 264 262 262
274 273 273 276 279 284 287 286 278 268 267 266 266 268 269 270 271 271 273 272 269 272 272 271 268 269 269 272 273 272 272 273 271 271 269 269 267 263 261 261 261 262 262
269 271 270 273 277 283 286 285 282 270 269 266 264 265 268 270 273 275 273 271 271 274 274 273 270 271 271 270 269 270 272 272 270 269 269 270 267 263 260 258 257 258 261
267 269 271 274 277 279 283 283 281 272 267 264 261 262 265 269 274 274 273 273 273 275 276 275 272 270 270 270 270 271 272 272 271 271 269 270 269 265 260 257 257 259 263
267 268 269 272 274 276 279 279 277 272 266 262 261 261 264 266 270 273 272 271 272 273 275 272 271 271 272 272 272 273 273 273 273 274 273 273 272 268 263 259 258 260 262
268 269 268 271 274 275 277 277 274 272 269 265 263 263 263 267 270 271 271 269 268 271 274 272 272 273 273 272 272 273 273 273 272 271 273 272 272 270 265 263 262 260 262
267 270 271 273 272 272 275 275 272 271 273 270 268 265 265 266 269 269 267 266 268 271 272 272 271 272 274 273 274 275 274 273 272 270 271 271 272 269 266 265 264 262 262
269 271 273 272 270 271 274 274 271 271 272 268 268 266 264 266 269 269 265 264 266 269 272 271 273 272 273 274 275 275 274 273 274 272 270 269 269 269 266 265 264 263 265
Height
5874 5873 5873 5872 5871 5870 5870 5869 5869 5869 5869 5869 5869 5869 5869 5869 5870 5870 5870 5871 5871 5871 5872 5872 5873 5873 5873 5874 5875 5875 5876 5876 5877 5878 5878 5878 5879 5879 5880 5880 5881 5881 5882
5874 5873 5872 5872 5870 5869 5869 5868 5868 5869 5869 5868 5868 5868 5869 5869 5869 5869 5869 5870 5870 5871 5871 5872 5872 5873 5873 5873 5874 5874 5875 5876 5876 5877 5878 5878 5879 5879 5880 5880 5881 5881 5882
5873 5873 5872 5871 5870 5869 5868 5868 5868 5868 5868 5868 5868 5868 5868 5868 5868 5868 5869 5869 5870 5870 5870 5871 5871 5872 5872 5873 5873 5874 5875 5875 5876 5876 5877 5877 5878 5879 5879 5879 5880 5881 5881
5873 5872 5871 5870 5869 5869 5868 5868 5867 5867 5867 5868 5868 5868 5868 5868 5867 5867 5868 5868 5869 5869 5870 5870 5870 5871 5872 5872 5873 5873 5874 5875 5875 5876 5876 5877 5877 5878 5879 5879 5880 5880 5880
5872 5871 5871 5870 5869 5868 5868 5867 5867 5867 5867 5867 5867 5867 5867 5867 5867 5867 5867 5867 5868 5868 5869 5869 5870 5870 5871 5871 5872 5873 5873 5874 5874 5875 5875 5876 5877 5877 5878 5878 5879 5880 5880
5871 5871 5870 5869 5868 5868 5867 5867 5867 5867 5867 5867 5867 5867 5867 5867 5867 5866 5866 5866 5867 5868 5868 5869 5869 5869 5870 5870 5871 5872 5872 5873 5873 5874 5874 5875 5875 5877 5877 5878 5878 5879 5879
5870 5870 5869 5868 5867 5867 5867 5866 5866 5866 5866 5866 5866 5866 5866 5866 5866 5866 5866 5866 5866 5867 5867 5868 5868 5868 5869 5869 5870 5870 5871 5872 5872 5873 5873 5874 5875 5876 5877 5877 5878 5878 5879
5869 5869 5868 5867 5866 5866 5866 5866 5866 5866 5866 5866 5865 5865 5865 5865 5865 5865 5865 5865 5865 5866 5866 5867 5867 5868 5867 5868 5869 5869 5870 5870 5871 5872 5873 5873 5874 5875 5875 5876 5877 5878 5878
5868 5868 5867 5866 5866 5865 5865 5865 5865 5865 5865 5865 5865 5864 5864 5864 5864 5864 5864 5864 5864 5865 5865 5865 5865 5866 5866 5867 5867 5868 5868 5869 5870 5871 5872 5872 5873 5873 5874 5875 5876 5877 5877
5867 5866 5866 5865 5865 5864 5864 5864 5864 5864 5864 5864 5863 5863 5863 5863 5863 5863 5863 5863 5863 5863 5863 5863 5864 5864 5865 5865 5865 5866 5866 5867 5868 5869 5870 5871 5871 5872 5873 5873 5874 5875 5876
5866 5865 5865 5864 5864 5863 5863 5863 5863 5862 5862 5862 5862 5862 5861 5861 5861 5862 5862 5862 5862 5862 5862 5862 5862 5863 5863 5863 5863 5864 5865 5865 5866 5868 5869 5869 5870 5871 5871 5872 5872 5873 5874
5864 5864 5863 5863 5863 5862 5861 5861 5861 5861 5861 5861 5860 5860 5860 5860 5860 5860 5860 5860 5860 5860 5861 5861 5861 5861 5861 5862 5862 5862 5863 5864 5865 5866 5867 5867 5868 5869 5870 5870 5871 5871 5872
5862 5862 5862 5861 5861 5861 5860 5860 5860 5860 5859 5859 5859 5859 5859 5859 5859 5859 5859 5858 5859 5859 5859 5859 5859 5859 5860 5860 5860 5860 5861 5862 5863 5863 5864 5866 5866 5867 5868 5868 5869 5869 5870
5860 5860 5860 5860 5859 5859 5859 5858 5858 5858 5858 5858 5858 5857 5857 5857 5857 5857 5857 5857 5857 5857 5857 5857 5858 5858 5858 5858 5858 5858 5859 5860 5860 5861 5862 5863 5864 5865 5866 5866 5867 5867 5868
5858 5858 5858 5858 5857 5857 5857 5857 5857 5856 5856 5856 5856 5856 5855 5856 5856 5856 5855 5855 5855 5855 5856 5856 5856 5856 5856 5856 5856 5857 5857 5858 5858 5859 5860 5861 5861 5862 5863 5864 5865 5865 5866
5856 5856 5855 5855 5855 5855 5855 5855 5854 5854 5854 5854 5854 5854 5854 5854 5854 5853 5853 5853 5853 5854 5854 5854 5854 5854 5854 5854 5854 5855 5855 5855 5856 5856 5857 5858 5859 5859 5860 5861 5862 5862 5863
5854 5853 5853 5853 5853 5853 5852 5852 5852 5852 5852 5852 5852 5852 5852 5852 5852 5852 5852 5851 5851 5851 5851 5851 5851 5852 5852 5852 5852 5853 5853 5853 5853 5854 5854 5855 5855 5856 5857 5858 5858 5859 5859
5851 5851 5851 5851 5851 5850 5850 5850 5850 5850 5850 5850 5850 5850 5849 5849 5850 5850 5850 5849 5849 5848 5848 5849 5849 5850 5850 5850 5850 5850 5850 5850 5850 5851 5851 5852 5852 5853 5854 5854 5855 5855 5856
5848 5848 5848 5848 5848 5848 5848 5847 5847 5847 5847 5847 5847 5847 5847 5847 5847 5847 5847 5847 5847 5846 5846 5847 5847 5847 5847 5848 5848 5848 5848 5848 5848 5848 5848 5849 5849 5850 5850 5851 5851 5852 5852
5845 5845 5845 5845 5845 5845 5845 5844 5844 5844 5844 5844 5845 5845 5845 5845 5844 5844 5844 5844 5844 5844 5844 5844 5844 5844 5844 5845 5845 5845 5845 5845 5845 5845 5845 5845 5846 5846 5847 5847 5847 5848 5848
5842 5842 5842 5842 5842 5842 5841 5841 5841 5841 5842 5842 5842 5842 5842 5842 5841 5841 5841 5841 5841 5841 5841 5841 5841 5841 5841 5842 5842 5842 5842 5842 5842 5841 5841 5841 5842 5842 5842 5843 5843 5844 5844
5839 5839 5838 5838 5838 5839 5838 5838 5838 5838 5839 5839 5839 5839 5839 5839 5838 5838 5838 5838 5838 5838 5837 5837 5838 5838 5838 5838 5838 5838 5838 5839 5838 5838 5837 5837 5837 5837 5838 5838 5839 5839 5840
5834 5834 5835 5835 5835 5835 5835 5835 5835 5835 5835 5835 5835 5835 5835 5835 5835 5835 5835 5834 5834 5834 5834 5834 5834 5834 5834 5834 5834 5834 5834 5834 5834 5834 5833 5833 5832 5833 5833 5834 5834 5835 5835
5830 5830 5830 5830 5831 5831 5831 5831 5832 5832 5832 5832 5832 5832 5832 5832 5832 5831 5831 5831 5830 5831 5830 5830 5830 5830 5830 5830 5830 5830 5830 5830 5830 5830 5829 5828 5828 5828 5828 5829 5829 5830 5830
5826 5826 5826 5826 5826 5827 5827 5827 5827 5828 5828 5828 5828 5828 5828 5828 5828 5828 5827 5827 5827 5827 5826 5826 5826 5826 5826 5826 5826 5826 5825 5825 5825 5825 5824 5824 5823 5823 5823 5824 5824 5825 5825
5821 5821 5821 5821 5821 5822 5822 5822 5822 5822 5823 5823 5823 5824 5824 5824 5824 5823 5823 5823 5823 5823 5823 5822 5822 5822 5822 5822 5821 5821 5820 5820 5820 5819 5819 5819 5818 5818 5818 5819 5819 5819 5820